Location: Unspecified
(44.4377°N, 88.0525°W)
Time: 23:30:03
(UTC-06:00)

Okean 3 - Visible Passes

Search period start: 25 February 2017 00:00
Search period end: 07 March 2017 00:00
Orbit: 579 x 602 km, 82.5° (Epoch: 25 February)

Date Brightness Start Highest point End Pass type
(mag) Time Alt. Az. Time Alt. Az. Time Alt. Az.
25 Feb 4.1 05:58:31 10° S 06:02:45 62° E 06:07:02 10° NNE visible
27 Feb 7.0 04:40:43 10° ESE 04:42:41 13° E 04:44:40 10° NE visible
28 Feb 6.5 04:47:48 10° SE 04:50:50 19° E 04:53:53 10° NE visible
28 Feb 6.9 18:05:28 10° NW 18:07:39 14° W 18:09:50 10° WSW visible
01 Mar 5.8 04:55:23 10° SSE 04:59:01 27° E 05:02:41 10° NNE visible
02 Mar 5.0 05:03:13 10° SSE 05:07:14 40° E 05:11:18 10° NNE visible
03 Mar 4.1 05:11:16 10° S 05:15:30 61° E 05:19:47 10° NNE visible
04 Mar 3.5 05:19:30 10° S 05:23:48 89° WNW 05:28:09 10° N visible
05 Mar 6.7 03:53:34 10° ESE 03:55:27 13° E 03:57:19 10° ENE visible
05 Mar 3.5 05:27:54 10° SSW 05:32:09 60° W 05:36:26 10° N visible
06 Mar 6.3 04:00:36 10° SE 04:03:35 18° E 04:06:34 10° NE visible
06 Mar 3.9 05:36:29 10° SSW 05:40:31 40° WNW 05:44:37 10° N visible
